レモン-アトラス彗星

C/2022 A3 ( Lemmon-ATLAS )

English version
Home page
Updated on September 4, 2024

---------------------------------------------------------------------

・ プロフィール

発見日 2022年1月10日、3月1日
発見光度 20.3等、19.2等
発見者 Mt. Lemmon Survey, Asteroid Terrestrial-Impact Last Alert System (ATLAS) search program

・ 写真集

・ 軌道要素

Epoch 2024 Oct. 17.0 TT = JDT 2460600.5
T 2023 Sept. 28.89054 TT                                Rudenko
q   3.7038506            (2000.0)            P               Q
z  +0.0011689      Peri.  234.85763     -0.48759782     +0.66420842
 +/-0.0000003      Node   325.46758     +0.60663210     -0.20900901
e   0.9956705      Incl.   88.34261     -0.62789001     -0.71773422
>From 1014 observations 2021 Apr. 30-2024 Aug. 31, mean residual 0".6.

・ 星図

・ 光度変化

        m1 = 6.0 + 5 logΔ + 13.0 log r(t + 140)  [    ,-140]  (              〜2023年 5月11日)
        m1 = 7.7 + 5 logΔ + 10.0 log r(t + 140)  [-140,    ]  (2023年 5月11日〜              )

---------------------------------------------------------------------

軌道要素はM.P.E.C. 2024-R10に掲載されたものです。
星図はステラナビゲータ Ver.10 (アストロアーツ) で作成したものです。
光度グラフはComet for Windowsで作成したものです。

---------------------------------------------------------------------

Copyright(C) Seiichi Yoshida (comet@aerith.net). All rights reserved.